SWR8CM EHAM-LSZH

Flight info

Callsign SWR8CM
Flight time 0h 56m
Altitude 35000
Route EDUPO Z739 MISGO DCT ASBON DCT TUSUK DCT LAMGO/N0462F270 T721 SUL/N0448F250 T721 RILAX
Aircraft B77W/H-SDE1E2E3FGHIJ2J3J4J5M1RWXY/LB1D1

Departure

Time 2026-04-18 08:39
Airport Amsterdam Airport Schiphol (EHAM)

Arrival

Time 2026-04-18 09:35
Airport Zürich Airport (LSZH)
Time Latitude Longitude Altitude Speed Heading
2026-04-18 08:02 52.31285 4.75565 2 ft 0 kts 87°
2026-04-18 08:04 52.31285 4.75564 2 ft 0 kts 87°
2026-04-18 08:12 52.31285 4.75563 2 ft 0 kts 87°
2026-04-18 08:20 52.31285 4.75562 2 ft 0 kts 87°
2026-04-18 08:24 52.31284 4.75553 3 ft 4 kts 87°
2026-04-18 08:24 52.31283 4.75509 4 ft 4 kts 87°
2026-04-18 08:24 52.31281 4.75466 4 ft 4 kts 77°
2026-04-18 08:25 52.31282 4.75452 4 ft 1 kts 356°
2026-04-18 08:25 52.31259 4.75454 6 ft 4 kts 356°
2026-04-18 08:25 52.31232 4.75457 5 ft 4 kts 356°
2026-04-18 08:25 52.31215 4.75458 5 ft 2 kts 356°
2026-04-18 08:29 52.31252 4.75455 6 ft 14 kts 356°
2026-04-18 08:30 52.31320 4.75448 2 ft 2 kts 356°
2026-04-18 08:30 52.31333 4.75447 2 ft 2 kts 357°
2026-04-18 08:30 52.31360 4.75445 2 ft 6 kts 357°
2026-04-18 08:30 52.31395 4.75446 2 ft 3 kts
2026-04-18 08:31 52.31414 4.75466 2 ft 4 kts 43°
2026-04-18 08:31 52.31431 4.75526 2 ft 13 kts 77°
2026-04-18 08:31 52.31433 4.75547 3 ft 0 kts 84°
2026-04-18 08:31 52.31433 4.75546 3 ft 0 kts 84°
2026-04-18 08:32 52.31437 4.75641 2 ft 12 kts 87°
2026-04-18 08:32 52.31441 4.75754 2 ft 8 kts 87°
2026-04-18 08:33 52.31446 4.75912 2 ft 24 kts 86°
2026-04-18 08:33 52.31454 4.76163 2 ft 6 kts 86°
2026-04-18 08:33 52.31456 4.76225 2 ft 14 kts 86°
2026-04-18 08:33 52.31459 4.76309 2 ft 0 kts 86°
2026-04-18 08:34 52.31464 4.76455 2 ft 30 kts 87°
2026-04-18 08:34 52.31478 4.76838 2 ft 34 kts 88°
2026-04-18 08:34 52.31474 4.77144 2 ft 24 kts 109°
2026-04-18 08:34 52.31373 4.77360 2 ft 24 kts 132°
2026-04-18 08:35 52.31235 4.77501 2 ft 24 kts 171°
2026-04-18 08:35 52.31067 4.77489 2 ft 24 kts 183°
2026-04-18 08:35 52.30902 4.77474 2 ft 24 kts 182°
2026-04-18 08:35 52.30748 4.77460 2 ft 20 kts 182°
2026-04-18 08:36 52.30615 4.77505 2 ft 12 kts 154°
2026-04-18 08:36 52.30552 4.77559 2 ft 0 kts 152°
2026-04-18 08:36 52.30547 4.77563 2 ft 2 kts 152°
2026-04-18 08:36 52.30525 4.77582 2 ft 9 kts 152°
2026-04-18 08:37 52.30417 4.77611 3 ft 19 kts 207°
2026-04-18 08:37 52.30386 4.77558 2 ft 0 kts 236°
2026-04-18 08:38 52.30381 4.77546 2 ft 6 kts 236°
2026-04-18 08:38 52.30204 4.77091 0 ft 108 kts 238°
2026-04-18 08:39 52.29593 4.75507 300 ft 202 kts 238°
2026-04-18 08:39 52.28861 4.73627 2362 ft 190 kts 239°
2026-04-18 08:39 52.28160 4.71804 3586 ft 194 kts 238°
2026-04-18 08:39 52.27364 4.69841 4005 ft 222 kts 231°
2026-04-18 08:40 52.25987 4.68592 4801 ft 240 kts 193°
2026-04-18 08:40 52.24286 4.68951 5664 ft 259 kts 162°
2026-04-18 08:40 52.22836 4.70815 6466 ft 279 kts 127°
2026-04-18 08:40 52.21919 4.73640 7226 ft 285 kts 122°
2026-04-18 08:41 52.20929 4.76475 8104 ft 289 kts 124°
2026-04-18 08:41 52.19898 4.79304 9075 ft 291 kts 124°
2026-04-18 08:41 52.18863 4.82161 10033 ft 295 kts 124°
2026-04-18 08:41 52.17847 4.85108 10726 ft 304 kts 117°
2026-04-18 08:42 52.17429 4.88652 10987 ft 340 kts 87°
2026-04-18 08:42 52.17983 4.92533 11199 ft 366 kts 72°
2026-04-18 08:42 52.18822 4.96621 11589 ft 390 kts 72°
2026-04-18 08:42 52.19696 5.00870 12436 ft 401 kts 72°
2026-04-18 08:43 52.20567 5.05240 13499 ft 408 kts 73°
2026-04-18 08:43 52.21423 5.09683 14516 ft 414 kts 74°
2026-04-18 08:43 52.22264 5.14153 15485 ft 420 kts 74°
2026-04-18 08:43 52.23117 5.18745 16445 ft 424 kts 75°
2026-04-18 08:44 52.23554 5.23561 17170 ft 428 kts 95°
2026-04-18 08:44 52.22986 5.28258 18061 ft 429 kts 113°
2026-04-18 08:44 52.21620 5.32540 18964 ft 424 kts 128°
2026-04-18 08:44 52.19888 5.36465 19722 ft 430 kts 131°
2026-04-18 08:45 52.18097 5.40414 20552 ft 435 kts 131°
2026-04-18 08:45 52.16298 5.44410 21380 ft 440 kts 130°
2026-04-18 08:45 52.14496 5.48481 22154 ft 447 kts 130°
2026-04-18 08:45 52.12677 5.52640 22918 ft 454 kts 130°
2026-04-18 08:46 52.10838 5.56854 23714 ft 459 kts 130°
2026-04-18 08:46 52.08980 5.61106 24399 ft 464 kts 130°
2026-04-18 08:46 52.07094 5.65400 25027 ft 469 kts 130°
2026-04-18 08:46 52.05160 5.69682 25653 ft 471 kts 134°
2026-04-18 08:47 52.03025 5.73741 26248 ft 474 kts 137°
2026-04-18 08:47 52.00800 5.77710 26845 ft 478 kts 137°
2026-04-18 08:47 51.98571 5.81759 27425 ft 483 kts 137°
2026-04-18 08:47 51.96349 5.85887 27986 ft 488 kts 136°
2026-04-18 08:48 51.94112 5.90063 28482 ft 493 kts 136°
2026-04-18 08:48 51.91854 5.94279 28974 ft 497 kts 136°
2026-04-18 08:48 51.89606 5.98467 29472 ft 501 kts 136°
2026-04-18 08:48 51.87355 6.02646 29918 ft 505 kts 136°
2026-04-18 08:49 51.85040 6.06930 30430 ft 506 kts 136°
2026-04-18 08:49 51.82727 6.11179 31096 ft 501 kts 136°
2026-04-18 08:49 51.80433 6.15373 31880 ft 495 kts 137°
2026-04-18 08:49 51.78168 6.19510 32640 ft 489 kts 137°
2026-04-18 08:50 51.75922 6.23605 33315 ft 485 kts 137°
2026-04-18 08:50 51.73695 6.27668 33947 ft 483 kts 137°
2026-04-18 08:50 51.71477 6.31715 34457 ft 480 kts 137°
2026-04-18 08:50 51.69271 6.35736 34882 ft 480 kts 137°
2026-04-18 08:51 51.67051 6.39775 35136 ft 483 kts 137°
2026-04-18 08:51 51.62558 6.47926 35175 ft 486 kts 137°
2026-04-18 08:52 51.58094 6.56006 35199 ft 482 kts 137°
2026-04-18 08:52 51.53664 6.63994 35202 ft 482 kts 137°
2026-04-18 08:53 51.49201 6.72020 35205 ft 482 kts 137°
2026-04-18 08:53 51.44728 6.80041 35201 ft 483 kts 137°
2026-04-18 08:54 51.40007 6.87646 35208 ft 479 kts 146°
2026-04-18 08:54 51.34598 6.93706 35194 ft 473 kts 153°
2026-04-18 08:55 51.28982 6.99247 35214 ft 475 kts 154°
2026-04-18 08:55 51.23423 7.04757 35212 ft 477 kts 153°
2026-04-18 08:56 51.17800 7.10369 35197 ft 477 kts 153°
2026-04-18 08:56 51.12183 7.15976 35199 ft 477 kts 153°
2026-04-18 08:57 51.03754 7.24353 35212 ft 480 kts 153°
2026-04-18 08:57 50.98081 7.29970 35216 ft 482 kts 153°
2026-04-18 08:58 50.92383 7.35595 35222 ft 483 kts 153°
2026-04-18 08:58 50.86676 7.41212 35196 ft 483 kts 153°
2026-04-18 08:59 50.80967 7.46818 35212 ft 483 kts 153°
2026-04-18 08:59 50.75260 7.52405 35185 ft 482 kts 152°
2026-04-18 09:00 50.69573 7.58031 35200 ft 483 kts 151°
2026-04-18 09:00 50.63960 7.63865 35204 ft 484 kts 150°
2026-04-18 09:01 50.58349 7.69722 35186 ft 484 kts 150°
2026-04-18 09:01 50.52712 7.75553 35199 ft 485 kts 150°
2026-04-18 09:02 50.47057 7.81362 35195 ft 486 kts 151°
2026-04-18 09:02 50.41389 7.87167 35195 ft 487 kts 151°
2026-04-18 09:03 50.35711 7.92965 35177 ft 487 kts 150°
2026-04-18 09:03 50.30025 7.98758 35192 ft 488 kts 150°
2026-04-18 09:04 50.24391 8.04481 35186 ft 488 kts 150°
2026-04-18 09:04 50.18724 8.10223 35192 ft 489 kts 150°
2026-04-18 09:05 50.12866 8.15522 35168 ft 485 kts 158°
2026-04-18 09:05 50.06582 8.19136 35185 ft 481 kts 166°
2026-04-18 09:06 50.00208 8.22302 35179 ft 481 kts 166°
2026-04-18 09:06 49.93833 8.25500 35184 ft 482 kts 165°
2026-04-18 09:07 49.87464 8.28729 35173 ft 482 kts 165°
2026-04-18 09:07 49.81077 8.31971 35188 ft 483 kts 165°
2026-04-18 09:08 49.74691 8.35205 35179 ft 483 kts 165°
2026-04-18 09:08 49.68293 8.38433 35177 ft 484 kts 165°
2026-04-18 09:09 49.61898 8.41650 35181 ft 484 kts 165°
2026-04-18 09:09 49.55545 8.44836 35184 ft 484 kts 165°
2026-04-18 09:10 49.49145 8.48038 35184 ft 483 kts 165°
2026-04-18 09:10 49.42743 8.51232 35172 ft 483 kts 165°
2026-04-18 09:11 49.36346 8.54414 35181 ft 483 kts 165°
2026-04-18 09:11 49.29946 8.57589 35185 ft 483 kts 165°
2026-04-18 09:12 49.23544 8.60757 35182 ft 484 kts 165°
2026-04-18 09:12 49.17139 8.63917 35167 ft 484 kts 165°
2026-04-18 09:13 49.10729 8.67072 35170 ft 484 kts 165°
2026-04-18 09:13 49.04360 8.70199 35179 ft 484 kts 165°
2026-04-18 09:14 48.97947 8.73340 35178 ft 485 kts 165°
2026-04-18 09:14 48.91493 8.76299 34890 ft 486 kts 171°
2026-04-18 09:15 48.88129 8.76967 34149 ft 487 kts 180°
2026-04-18 09:15 48.84756 8.76923 33203 ft 484 kts 188°
2026-04-18 09:15 48.81443 8.76183 32288 ft 480 kts 194°
2026-04-18 09:15 48.78167 8.75240 31478 ft 478 kts 194°
2026-04-18 09:16 48.74918 8.74308 30847 ft 472 kts 194°
2026-04-18 09:16 48.71705 8.73406 30210 ft 468 kts 193°
2026-04-18 09:16 48.68517 8.72533 29497 ft 463 kts 193°
2026-04-18 09:16 48.65363 8.71686 28863 ft 458 kts 193°
2026-04-18 09:17 48.62244 8.70856 28288 ft 452 kts 193°
2026-04-18 09:17 48.59169 8.70043 27787 ft 446 kts 193°
2026-04-18 09:17 48.56132 8.69239 27182 ft 442 kts 193°
2026-04-18 09:17 48.53108 8.68438 26579 ft 439 kts 193°
2026-04-18 09:18 48.50108 8.67644 25978 ft 436 kts 193°
2026-04-18 09:18 48.47125 8.66855 25395 ft 434 kts 193°
2026-04-18 09:18 48.44201 8.66083 24818 ft 432 kts 193°
2026-04-18 09:18 48.41248 8.65304 24236 ft 430 kts 193°
2026-04-18 09:19 48.38308 8.64530 23619 ft 429 kts 193°
2026-04-18 09:19 48.35385 8.63705 22947 ft 427 kts 194°
2026-04-18 09:19 48.32484 8.62827 22314 ft 423 kts 194°
2026-04-18 09:19 48.29610 8.61942 21755 ft 420 kts 194°
2026-04-18 09:20 48.26755 8.61067 21188 ft 417 kts 194°
2026-04-18 09:20 48.23917 8.60206 20641 ft 415 kts 194°
2026-04-18 09:20 48.21094 8.59354 20061 ft 413 kts 194°
2026-04-18 09:20 48.19192 8.58785 19688 ft 412 kts 194°
2026-04-18 09:21 48.16514 8.57987 19125 ft 397 kts 194°
2026-04-18 09:21 48.13884 8.57212 18588 ft 373 kts 194°
2026-04-18 09:21 48.11391 8.56475 17978 ft 366 kts 194°
2026-04-18 09:21 48.08817 8.55701 17349 ft 387 kts 194°
2026-04-18 09:22 48.06148 8.54903 16735 ft 393 kts 194°
2026-04-18 09:22 48.03469 8.54109 16104 ft 391 kts 194°
2026-04-18 09:22 48.00814 8.53326 15481 ft 386 kts 194°
2026-04-18 09:22 47.98196 8.52554 14873 ft 382 kts 194°
2026-04-18 09:23 47.95561 8.52198 14245 ft 383 kts 176°
2026-04-18 09:23 47.92995 8.53258 13620 ft 384 kts 156°
2026-04-18 09:23 47.90785 8.55453 12982 ft 381 kts 142°
2026-04-18 09:23 47.88754 8.57963 12356 ft 378 kts 141°
2026-04-18 09:24 47.86743 8.60470 11711 ft 375 kts 141°
2026-04-18 09:24 47.84751 8.62944 11116 ft 371 kts 141°
2026-04-18 09:24 47.82776 8.65375 10510 ft 366 kts 141°
2026-04-18 09:24 47.80817 8.67766 9900 ft 361 kts 141°
2026-04-18 09:25 47.78900 8.70094 9245 ft 347 kts 141°
2026-04-18 09:25 47.77109 8.72266 8562 ft 327 kts 141°
2026-04-18 09:25 47.75394 8.74342 7948 ft 309 kts 141°
2026-04-18 09:25 47.73738 8.76335 7317 ft 296 kts 141°
2026-04-18 09:26 47.72190 8.78201 6719 ft 285 kts 141°
2026-04-18 09:26 47.70673 8.80029 6219 ft 280 kts 141°
2026-04-18 09:26 47.69154 8.81854 6169 ft 288 kts 141°
2026-04-18 09:26 47.67432 8.83507 6162 ft 293 kts 160°
2026-04-18 09:27 47.65486 8.83866 5754 ft 279 kts 189°
2026-04-18 09:27 47.63731 8.82815 5146 ft 269 kts 217°
2026-04-18 09:27 47.62498 8.80821 4532 ft 260 kts 239°
2026-04-18 09:27 47.61761 8.78423 4151 ft 255 kts 257°
2026-04-18 09:28 47.61518 8.75752 4027 ft 265 kts 267°
2026-04-18 09:28 47.61448 8.73061 3993 ft 256 kts 269°
2026-04-18 09:28 47.61401 8.70462 3985 ft 248 kts 269°
2026-04-18 09:28 47.61354 8.67923 3982 ft 247 kts 269°
2026-04-18 09:29 47.61298 8.65354 3992 ft 252 kts 268°
2026-04-18 09:29 47.61232 8.62736 3995 ft 255 kts 268°
2026-04-18 09:29 47.61160 8.60118 3993 ft 253 kts 268°
2026-04-18 09:29 47.61085 8.57517 3983 ft 252 kts 268°
2026-04-18 09:30 47.61008 8.54941 3984 ft 248 kts 268°
2026-04-18 09:30 47.60935 8.52511 3953 ft 223 kts 268°
2026-04-18 09:30 47.60866 8.50343 3927 ft 202 kts 268°
2026-04-18 09:30 47.60800 8.48276 3978 ft 199 kts 268°
2026-04-18 09:31 47.60735 8.46234 3967 ft 202 kts 268°
2026-04-18 09:31 47.60669 8.44120 3971 ft 204 kts 267°
2026-04-18 09:31 47.60288 8.42126 3904 ft 205 kts 233°
2026-04-18 09:31 47.59142 8.40904 4157 ft 213 kts 198°
2026-04-18 09:32 47.57627 8.40827 3860 ft 223 kts 163°
2026-04-18 09:32 47.56346 8.42038 3627 ft 218 kts 134°
2026-04-18 09:32 47.55363 8.43667 3319 ft 204 kts 131°
2026-04-18 09:32 47.54449 8.45095 3068 ft 180 kts 137°
2026-04-18 09:33 47.53595 8.46270 2859 ft 156 kts 138°
2026-04-18 09:33 47.52835 8.47305 2698 ft 144 kts 138°
2026-04-18 09:33 47.52096 8.48313 2487 ft 144 kts 137°
2026-04-18 09:33 47.51373 8.49301 2295 ft 144 kts 137°
2026-04-18 09:34 47.50639 8.50302 2101 ft 144 kts 137°
2026-04-18 09:34 47.49906 8.51311 1869 ft 143 kts 137°
2026-04-18 09:34 47.49184 8.52304 1687 ft 142 kts 137°
2026-04-18 09:34 47.48451 8.53290 1510 ft 143 kts 137°
2026-04-18 09:35 47.47721 8.54278 1413 ft 136 kts 137°
2026-04-18 09:35 47.47118 8.55098 1402 ft 94 kts 137°
2026-04-18 09:35 47.46774 8.55556 1404 ft 42 kts 142°
2026-04-18 09:35 47.46494 8.55713 1409 ft 33 kts 167°
2026-04-18 09:36 47.46404 8.55750 1410 ft 12 kts 157°
2026-04-18 09:36 47.46307 8.55861 1414 ft 25 kts 137°
2026-04-18 09:36 47.46155 8.56068 1420 ft 30 kts 137°
2026-04-18 09:36 47.46019 8.56254 1421 ft 23 kts 137°
2026-04-18 09:37 47.45917 8.56270 1421 ft 9 kts 248°
2026-04-18 09:37 47.45923 8.56089 1416 ft 27 kts 276°
2026-04-18 09:37 47.45942 8.55814 1411 ft 27 kts 276°
2026-04-18 09:37 47.45962 8.55549 1412 ft 12 kts 276°
2026-04-18 09:38 47.45971 8.55462 1409 ft 6 kts 293°
2026-04-18 09:38 47.46003 8.55429 1407 ft 2 kts 342°
2026-04-18 09:38 47.46025 8.55429 1408 ft 4 kts
2026-04-18 09:38 47.46044 8.55432 1405 ft 2 kts
2026-04-18 09:39 47.46053 8.55433 1408 ft 1 kts
2026-04-18 09:39 47.46055 8.55433 1403 ft 0 kts